SWR7WA LSZH-LIMC

Flight info

Callsign SWR7WA
Flight time 0h 51m
Altitude 22000
Route VEBIT4N/32 VEBIT T53 ARTAG/N0426F240 T53 GERSA/N0420F230 DCT SOSON DCT DEGAD DCT BASGO Z424 AKASU/N0398F190 Z424 RIXUV
Aircraft A320/M-SDE3FGHIRWY/LB1

Departure

Time 2026-05-05 19:44
Airport Zürich Airport (LSZH)

Arrival

Time 2026-05-05 20:36
Airport Milan Malpensa International Airport (LIMC)
Time Latitude Longitude Altitude Speed Heading
2026-05-05 19:28 47.46196 8.55247 1397 ft 0 kts 186°
2026-05-05 19:35 47.46217 8.55250 1397 ft 4 kts 182°
2026-05-05 19:35 47.46244 8.55249 1397 ft 4 kts 170°
2026-05-05 19:35 47.46268 8.55237 1396 ft 4 kts 133°
2026-05-05 19:35 47.46275 8.55221 1397 ft 0 kts 95°
2026-05-05 19:38 47.46270 8.55284 1397 ft 9 kts 97°
2026-05-05 19:39 47.46261 8.55406 1396 ft 15 kts 95°
2026-05-05 19:39 47.46250 8.55562 1397 ft 16 kts 96°
2026-05-05 19:39 47.46237 8.55743 1398 ft 18 kts 95°
2026-05-05 19:39 47.46230 8.55850 1398 ft 7 kts 96°
2026-05-05 19:40 47.46219 8.55962 1398 ft 14 kts 111°
2026-05-05 19:40 47.46198 8.56000 1399 ft 5 kts 132°
2026-05-05 19:40 47.46158 8.56062 1401 ft 9 kts 136°
2026-05-05 19:40 47.46110 8.56128 1402 ft 9 kts 137°
2026-05-05 19:41 47.46080 8.56168 1401 ft 0 kts 138°
2026-05-05 19:41 47.46077 8.56172 1401 ft 2 kts 137°
2026-05-05 19:41 47.46074 8.56176 1401 ft 0 kts 136°
2026-05-05 19:42 47.46063 8.56193 1401 ft 9 kts 134°
2026-05-05 19:42 47.46068 8.56331 1401 ft 15 kts 48°
2026-05-05 19:42 47.46130 8.56427 1398 ft 10 kts 40°
2026-05-05 19:43 47.46179 8.56377 1398 ft 11 kts 307°
2026-05-05 19:43 47.46194 8.56356 1398 ft 0 kts 319°
2026-05-05 19:43 47.46238 8.56300 1398 ft 34 kts 317°
2026-05-05 19:44 47.46595 8.55809 1394 ft 106 kts 317°
2026-05-05 19:44 47.47290 8.54851 1398 ft 161 kts 316°
2026-05-05 19:44 47.48156 8.53661 1963 ft 167 kts 317°
2026-05-05 19:44 47.49020 8.52508 2705 ft 170 kts 317°
2026-05-05 19:45 47.49910 8.51325 3386 ft 175 kts 318°
2026-05-05 19:45 47.50976 8.50217 3711 ft 200 kts 329°
2026-05-05 19:45 47.52253 8.49166 4060 ft 220 kts 322°
2026-05-05 19:45 47.53226 8.47392 4705 ft 230 kts 292°
2026-05-05 19:46 47.53547 8.45075 5223 ft 236 kts 268°
2026-05-05 19:46 47.53158 8.42769 5124 ft 230 kts 241°
2026-05-05 19:46 47.52383 8.40679 5520 ft 233 kts 237°
2026-05-05 19:46 47.51267 8.38945 6390 ft 236 kts 213°
2026-05-05 19:47 47.49680 8.38010 6833 ft 260 kts 188°
2026-05-05 19:47 47.47819 8.38212 7315 ft 279 kts 169°
2026-05-05 19:47 47.45888 8.38798 8093 ft 286 kts 168°
2026-05-05 19:47 47.43925 8.39402 8908 ft 290 kts 168°
2026-05-05 19:48 47.41930 8.40013 9705 ft 295 kts 168°
2026-05-05 19:48 47.39894 8.40630 10294 ft 307 kts 169°
2026-05-05 19:48 47.37717 8.41283 10508 ft 331 kts 169°
2026-05-05 19:48 47.35377 8.41979 10660 ft 354 kts 169°
2026-05-05 19:49 47.32906 8.42708 10963 ft 368 kts 169°
2026-05-05 19:49 47.30405 8.43449 11499 ft 374 kts 169°
2026-05-05 19:49 47.27823 8.44219 12082 ft 378 kts 169°
2026-05-05 19:49 47.25238 8.45115 12637 ft 382 kts 162°
2026-05-05 19:50 47.22816 8.46649 13161 ft 386 kts 153°
2026-05-05 19:50 47.20409 8.48447 13678 ft 389 kts 153°
2026-05-05 19:50 47.17938 8.50228 14168 ft 393 kts 158°
2026-05-05 19:50 47.15360 8.51428 14623 ft 395 kts 168°
2026-05-05 19:51 47.12623 8.51973 15069 ft 398 kts 174°
2026-05-05 19:51 47.09860 8.52370 15500 ft 401 kts 175°
2026-05-05 19:51 47.07070 8.52766 15909 ft 404 kts 175°
2026-05-05 19:51 47.04261 8.53159 16290 ft 406 kts 175°
2026-05-05 19:52 47.01442 8.53557 16645 ft 409 kts 175°
2026-05-05 19:52 46.98588 8.53966 16994 ft 411 kts 174°
2026-05-05 19:52 46.95750 8.54378 17313 ft 414 kts 174°
2026-05-05 19:52 46.92875 8.54797 17616 ft 416 kts 174°
2026-05-05 19:53 46.89989 8.55219 17904 ft 418 kts 174°
2026-05-05 19:53 46.87083 8.55643 18176 ft 420 kts 174°
2026-05-05 19:53 46.84165 8.56064 18443 ft 422 kts 174°
2026-05-05 19:53 46.81227 8.56484 18702 ft 424 kts 174°
2026-05-05 19:54 46.78292 8.56902 18947 ft 426 kts 174°
2026-05-05 19:54 46.75327 8.57326 19194 ft 428 kts 174°
2026-05-05 19:54 46.72363 8.57750 19419 ft 429 kts 174°
2026-05-05 19:54 46.69387 8.58172 19634 ft 431 kts 174°
2026-05-05 19:55 46.66391 8.58595 19836 ft 433 kts 175°
2026-05-05 19:55 46.63389 8.59017 20029 ft 434 kts 174°
2026-05-05 19:55 46.60379 8.59450 20224 ft 436 kts 174°
2026-05-05 19:55 46.57317 8.59897 20408 ft 437 kts 174°
2026-05-05 19:56 46.54326 8.60327 20582 ft 438 kts 174°
2026-05-05 19:56 46.51244 8.60762 20755 ft 440 kts 175°
2026-05-05 19:56 46.48191 8.61074 20902 ft 440 kts 180°
2026-05-05 19:56 46.45149 8.60814 20712 ft 450 kts 188°
2026-05-05 19:57 46.42029 8.59744 20431 ft 460 kts 199°
2026-05-05 19:57 46.39139 8.57832 20159 ft 465 kts 210°
2026-05-05 19:57 46.36364 8.55297 19881 ft 464 kts 213°
2026-05-05 19:57 46.33676 8.52841 19610 ft 463 kts 212°
2026-05-05 19:58 46.30879 8.50552 19332 ft 461 kts 205°
2026-05-05 19:58 46.27876 8.48987 19071 ft 458 kts 195°
2026-05-05 19:58 46.24747 8.48188 18981 ft 457 kts 185°
2026-05-05 19:58 46.21565 8.48114 19012 ft 458 kts 176°
2026-05-05 19:59 46.18431 8.48521 19009 ft 458 kts 175°
2026-05-05 19:59 46.15248 8.48957 19009 ft 458 kts 175°
2026-05-05 19:59 46.12086 8.49465 19006 ft 458 kts 171°
2026-05-05 19:59 46.09008 8.50603 19005 ft 449 kts 161°
2026-05-05 20:00 46.06155 8.52149 19007 ft 425 kts 159°
2026-05-05 20:00 46.03436 8.53625 19007 ft 404 kts 160°
2026-05-05 20:00 46.00905 8.54992 19000 ft 386 kts 160°
2026-05-05 20:00 45.98408 8.56333 18669 ft 378 kts 160°
2026-05-05 20:01 45.95952 8.57650 18317 ft 371 kts 160°
2026-05-05 20:01 45.93804 8.58801 18003 ft 365 kts 160°
2026-05-05 20:01 45.91432 8.60072 17651 ft 359 kts 159°
2026-05-05 20:01 45.89230 8.61662 17303 ft 354 kts 146°
2026-05-05 20:02 45.87296 8.63817 16952 ft 349 kts 141°
2026-05-05 20:02 45.85744 8.65626 16662 ft 345 kts 141°
2026-05-05 20:02 45.83871 8.67803 16308 ft 342 kts 141°
2026-05-05 20:02 45.82035 8.69931 15958 ft 338 kts 141°
2026-05-05 20:03 45.80206 8.72043 15607 ft 335 kts 141°
2026-05-05 20:03 45.78394 8.74132 15256 ft 333 kts 141°
2026-05-05 20:03 45.76587 8.76172 14905 ft 330 kts 146°
2026-05-05 20:03 45.74613 8.77810 14556 ft 326 kts 152°
2026-05-05 20:04 45.72620 8.79346 14205 ft 324 kts 152°
2026-05-05 20:04 45.70654 8.80859 13857 ft 322 kts 152°
2026-05-05 20:04 45.68686 8.82373 13506 ft 320 kts 152°
2026-05-05 20:04 45.66735 8.83871 13156 ft 317 kts 152°
2026-05-05 20:05 45.64808 8.85346 12993 ft 309 kts 152°
2026-05-05 20:05 45.62959 8.86760 13005 ft 295 kts 152°
2026-05-05 20:05 45.61077 8.87857 13008 ft 290 kts 167°
2026-05-05 20:05 45.59093 8.88429 12774 ft 292 kts 169°
2026-05-05 20:06 45.57100 8.88974 12448 ft 290 kts 169°
2026-05-05 20:06 45.55115 8.89511 12122 ft 289 kts 169°
2026-05-05 20:06 45.53146 8.90041 11797 ft 288 kts 169°
2026-05-05 20:06 45.51170 8.90575 11469 ft 286 kts 169°
2026-05-05 20:07 45.49223 8.91105 11224 ft 282 kts 169°
2026-05-05 20:07 45.47328 8.91622 11097 ft 273 kts 169°
2026-05-05 20:07 45.45491 8.92123 10971 ft 264 kts 169°
2026-05-05 20:07 45.43717 8.92606 10832 ft 257 kts 169°
2026-05-05 20:08 45.41975 8.93078 10589 ft 253 kts 169°
2026-05-05 20:08 45.40251 8.93543 10303 ft 251 kts 169°
2026-05-05 20:08 45.38538 8.94004 10008 ft 250 kts 169°
2026-05-05 20:08 45.36832 8.94464 9708 ft 249 kts 170°
2026-05-05 20:09 45.35136 8.94921 9403 ft 247 kts 169°
2026-05-05 20:09 45.33448 8.95377 9095 ft 246 kts 169°
2026-05-05 20:09 45.31794 8.95824 8808 ft 244 kts 169°
2026-05-05 20:09 45.30157 8.96265 8645 ft 236 kts 169°
2026-05-05 20:10 45.28556 8.96701 8379 ft 233 kts 169°
2026-05-05 20:10 45.26966 8.97136 8086 ft 232 kts 169°
2026-05-05 20:10 45.25390 8.97566 7787 ft 230 kts 169°
2026-05-05 20:10 45.23819 8.97995 7489 ft 229 kts 169°
2026-05-05 20:11 45.22254 8.98421 7192 ft 228 kts 169°
2026-05-05 20:11 45.20697 8.98842 6895 ft 227 kts 169°
2026-05-05 20:11 45.19151 8.99260 6601 ft 226 kts 169°
2026-05-05 20:11 45.17615 8.99674 6307 ft 224 kts 169°
2026-05-05 20:12 45.16085 9.00088 6067 ft 222 kts 170°
2026-05-05 20:12 45.14568 9.00498 6014 ft 222 kts 169°
2026-05-05 20:12 45.13049 9.00908 6015 ft 223 kts 169°
2026-05-05 20:12 45.11522 9.01319 6016 ft 224 kts 169°
2026-05-05 20:13 45.09990 9.01732 6016 ft 224 kts 169°
2026-05-05 20:13 45.08461 9.02144 6016 ft 224 kts 169°
2026-05-05 20:13 45.06918 9.02560 6016 ft 224 kts 169°
2026-05-05 20:13 45.05391 9.02971 6016 ft 224 kts 169°
2026-05-05 20:14 45.03878 9.03461 5870 ft 222 kts 157°
2026-05-05 20:14 45.02690 9.04803 5574 ft 221 kts 123°
2026-05-05 20:14 45.02247 9.06851 5267 ft 221 kts 88°
2026-05-05 20:14 45.02709 9.08879 5045 ft 218 kts 52°
2026-05-05 20:15 45.03901 9.10133 5015 ft 221 kts 17°
2026-05-05 20:15 45.05431 9.10210 5016 ft 221 kts 341°
2026-05-05 20:15 45.06689 9.09080 5016 ft 219 kts 307°
2026-05-05 20:15 45.07275 9.07138 5016 ft 218 kts 272°
2026-05-05 20:16 45.06968 9.05078 5015 ft 216 kts 238°
2026-05-05 20:16 45.05885 9.03654 5015 ft 216 kts 203°
2026-05-05 20:16 45.04410 9.03352 5016 ft 217 kts 174°
2026-05-05 20:16 45.02920 9.03724 5016 ft 218 kts 169°
2026-05-05 20:17 45.01910 9.03999 5016 ft 219 kts 169°
2026-05-05 20:17 45.00433 9.04392 5016 ft 219 kts 169°
2026-05-05 20:17 44.98939 9.04789 5016 ft 219 kts 169°
2026-05-05 20:17 44.97438 9.05190 5016 ft 219 kts 169°
2026-05-05 20:18 44.95935 9.05592 5016 ft 219 kts 169°
2026-05-05 20:18 44.94436 9.05994 5015 ft 219 kts 170°
2026-05-05 20:18 44.92939 9.06396 5016 ft 219 kts 169°
2026-05-05 20:18 44.91441 9.06797 5016 ft 219 kts 170°
2026-05-05 20:19 44.89947 9.07198 5015 ft 219 kts 169°
2026-05-05 20:19 44.88451 9.07600 5015 ft 219 kts 169°
2026-05-05 20:19 44.86957 9.08001 5015 ft 219 kts 170°
2026-05-05 20:19 44.85461 9.08402 5015 ft 219 kts 170°
2026-05-05 20:20 44.83964 9.08378 5011 ft 217 kts 199°
2026-05-05 20:20 44.82735 9.07204 5016 ft 216 kts 231°
2026-05-05 20:20 44.82090 9.05311 5015 ft 217 kts 261°
2026-05-05 20:20 44.82202 9.03214 5015 ft 218 kts 290°
2026-05-05 20:21 44.83029 9.01479 5015 ft 219 kts 320°
2026-05-05 20:21 44.84380 9.00523 5019 ft 220 kts 345°
2026-05-05 20:21 44.85871 8.99988 5017 ft 221 kts 345°
2026-05-05 20:21 44.87366 8.99450 5016 ft 222 kts 345°
2026-05-05 20:22 44.88862 8.98905 5016 ft 222 kts 345°
2026-05-05 20:22 44.90353 8.98357 5016 ft 222 kts 345°
2026-05-05 20:22 44.91856 8.97806 5016 ft 222 kts 345°
2026-05-05 20:22 44.93350 8.97259 5016 ft 222 kts 345°
2026-05-05 20:23 44.94844 8.96711 5016 ft 222 kts 345°
2026-05-05 20:23 44.96340 8.96164 5016 ft 222 kts 345°
2026-05-05 20:23 44.97832 8.95617 5016 ft 222 kts 345°
2026-05-05 20:23 44.99328 8.95067 5016 ft 222 kts 345°
2026-05-05 20:24 45.00802 8.94525 5016 ft 222 kts 345°
2026-05-05 20:24 45.02295 8.93978 5016 ft 222 kts 345°
2026-05-05 20:24 45.03789 8.93432 5016 ft 222 kts 345°
2026-05-05 20:24 45.05282 8.92885 5016 ft 222 kts 345°
2026-05-05 20:25 45.06776 8.92335 5016 ft 222 kts 345°
2026-05-05 20:25 45.08272 8.91783 5016 ft 222 kts 345°
2026-05-05 20:25 45.09763 8.91233 5016 ft 222 kts 345°
2026-05-05 20:25 45.11256 8.90682 5016 ft 222 kts 345°
2026-05-05 20:26 45.12751 8.90132 5016 ft 222 kts 345°
2026-05-05 20:26 45.14241 8.89580 5016 ft 222 kts 345°
2026-05-05 20:26 45.15734 8.89023 5016 ft 222 kts 345°
2026-05-05 20:26 45.17227 8.88470 5016 ft 222 kts 345°
2026-05-05 20:27 45.18714 8.87919 4799 ft 220 kts 345°
2026-05-05 20:27 45.20194 8.87370 4508 ft 219 kts 345°
2026-05-05 20:27 45.21668 8.86824 4225 ft 218 kts 345°
2026-05-05 20:27 45.23130 8.86282 4045 ft 216 kts 345°
2026-05-05 20:28 45.24585 8.85741 4015 ft 217 kts 345°
2026-05-05 20:28 45.26050 8.85196 4016 ft 218 kts 345°
2026-05-05 20:28 45.27517 8.84652 4016 ft 218 kts 345°
2026-05-05 20:28 45.28984 8.84108 4016 ft 218 kts 345°
2026-05-05 20:29 45.30450 8.83564 4016 ft 218 kts 345°
2026-05-05 20:29 45.31916 8.83020 4019 ft 218 kts 345°
2026-05-05 20:29 45.33381 8.82476 4017 ft 218 kts 345°
2026-05-05 20:29 45.34849 8.81930 4016 ft 218 kts 345°
2026-05-05 20:30 45.36299 8.81390 4016 ft 218 kts 345°
2026-05-05 20:30 45.37762 8.80845 4016 ft 218 kts 345°
2026-05-05 20:30 45.39228 8.80298 4016 ft 218 kts 345°
2026-05-05 20:30 45.40686 8.79754 4012 ft 213 kts 345°
2026-05-05 20:31 45.42079 8.79235 4008 ft 201 kts 345°
2026-05-05 20:31 45.43388 8.78788 4034 ft 188 kts 347°
2026-05-05 20:31 45.44663 8.78412 3970 ft 187 kts 348°
2026-05-05 20:31 45.45933 8.78057 3777 ft 185 kts 348°
2026-05-05 20:32 45.47200 8.77707 3547 ft 184 kts 348°
2026-05-05 20:32 45.48456 8.77362 3307 ft 184 kts 348°
2026-05-05 20:32 45.49706 8.77018 3079 ft 182 kts 348°
2026-05-05 20:32 45.50950 8.76676 2830 ft 181 kts 348°
2026-05-05 20:33 45.52164 8.76343 2586 ft 175 kts 348°
2026-05-05 20:33 45.53317 8.76026 2374 ft 161 kts 348°
2026-05-05 20:33 45.54366 8.75737 2157 ft 147 kts 348°
2026-05-05 20:33 45.55345 8.75468 1966 ft 140 kts 348°
2026-05-05 20:34 45.56291 8.75207 1784 ft 138 kts 348°
2026-05-05 20:34 45.57225 8.74950 1603 ft 136 kts 348°
2026-05-05 20:34 45.58155 8.74693 1423 ft 136 kts 348°
2026-05-05 20:34 45.59082 8.74438 1244 ft 135 kts 348°
2026-05-05 20:35 45.60004 8.74183 1064 ft 135 kts 348°
2026-05-05 20:35 45.60925 8.73929 885 ft 134 kts 348°
2026-05-05 20:35 45.61838 8.73674 752 ft 133 kts 348°
2026-05-05 20:35 45.62593 8.73466 748 ft 73 kts 349°
2026-05-05 20:36 45.62943 8.73371 744 ft 42 kts 349°
2026-05-05 20:36 45.63169 8.73216 747 ft 33 kts 320°
2026-05-05 20:36 45.63305 8.72976 752 ft 28 kts 304°
2026-05-05 20:36 45.63353 8.72876 752 ft 2 kts 304°
2026-05-05 20:37 45.63361 8.72860 752 ft 2 kts 304°
2026-05-05 20:37 45.63367 8.72846 752 ft 3 kts 304°
2026-05-05 20:37 45.63403 8.72747 752 ft 18 kts 287°
2026-05-05 20:37 45.63396 8.72555 752 ft 19 kts 259°
2026-05-05 20:38 45.63375 8.72399 751 ft 18 kts 259°
2026-05-05 20:38 45.63348 8.72198 747 ft 23 kts 259°
2026-05-05 20:38 45.63327 8.72043 751 ft 11 kts 259°
2026-05-05 20:38 45.63322 8.72006 751 ft 3 kts 259°
2026-05-05 20:39 45.63264 8.71970 752 ft 15 kts 167°
2026-05-05 20:39 45.63149 8.72003 752 ft 18 kts 169°
2026-05-05 20:39 45.63038 8.72034 752 ft 12 kts 168°
2026-05-05 20:39 45.62951 8.72058 752 ft 15 kts 169°
2026-05-05 20:40 45.62836 8.72090 752 ft 19 kts 168°
2026-05-05 20:40 45.62717 8.72113 752 ft 16 kts 192°
2026-05-05 20:40 45.62673 8.71999 752 ft 14 kts 259°
2026-05-05 20:40 45.62650 8.71858 753 ft 12 kts 240°
2026-05-05 20:41 45.62564 8.71853 753 ft 9 kts 168°
2026-05-05 20:41 45.62493 8.71872 753 ft 10 kts 169°
2026-05-05 20:41 45.62462 8.71805 753 ft 8 kts 256°
2026-05-05 20:41 45.62458 8.71776 753 ft 0 kts 260°